Location: Pompeys Pillar
(45.9913°N, 107.9528°W)
Time: 20:11:38
(UTC+00:00)

BlueWalker 3 - Visible Passes

Search period start: 08 December 2022 00:00
Search period end: 18 December 2022 00:00
Orbit: 501 x 518 km, 53.2° (Epoch: 08 December)

Date Brightness Start Highest point End Pass type
(mag) Time Alt. Az. Time Alt. Az. Time Alt. Az.
08 Dec 2.9 00:01:08 10° NW 00:04:40 31° NNE 00:08:11 10° ENE visible
08 Dec 2.0 01:39:48 10° WNW 01:43:20 71° NW 01:43:20 71° NW visible
09 Dec 1.8 01:21:23 10° WNW 01:25:18 89° N 01:26:07 55° ESE visible
10 Dec 1.9 01:02:58 10° WNW 01:06:54 86° SSW 01:09:06 25° SE visible
10 Dec 5.0 02:42:42 10° W 02:43:58 14° WSW 02:43:58 14° WSW visible
11 Dec 2.0 00:44:33 10° WNW 00:48:28 82° SSW 00:52:21 10° SE visible
11 Dec 4.7 02:24:25 10° W 02:26:35 14° SW 02:27:15 14° SW visible
12 Dec 2.1 00:26:07 10° WNW 00:30:02 78° SW 00:33:55 10° SE visible
12 Dec 4.9 02:06:10 10° W 02:08:08 14° SW 02:10:07 10° SSW visible
13 Dec 2.2 00:07:41 10° WNW 00:11:36 74° SW 00:15:29 10° SE visible
13 Dec 5.0 01:47:54 10° W 01:49:40 13° SW 01:51:25 10° SSW visible
14 Dec 5.2 01:29:42 10° WSW 01:31:12 12° SW 01:32:40 10° SSW visible
15 Dec 5.4 01:11:34 10° WSW 01:12:43 11° SW 01:13:51 10° SW visible
16 Dec 5.7 00:53:38 10° WSW 00:54:14 10° SW 00:54:50 10° SW visible
